Home > Weather > Redmond > Past weeks

Flag for USA Past Weather in Redmond, Washington, USA — Yesterday and Last 2 Weeks

Now
84 °F

Passing clouds.


Feels Like: 83 °F
Forecast: 62 / 78 °F
Wind: 8 mph from Northwest

Location: Seattle Boeing Field

Current Time: Jul 25, 2016 at 5:51:31 PM

Latest Report: Jul 25, 2016 at 4:53 PM


Visibility: 10 mi

Pressure: 30.01 "Hg

Humidity: 38%

Dew Point: 56 °F

Location of RedmondLocation

Past Weather in Redmond — Graph

°F

Redmond Temperature Yesterday

Maximum temperature yesterday: 80 °F (at 3:53 PM)
Minimum temperature yesterday: 58 °F (at 5:53 AM)
Average temperature yesterday: 69 °F

High & Low Weather Summary for the Past Weeks

 TemperatureHumidityPressure
High84 °F (Jul 25, 3:53 PM)90% (Jul 22, 7:53 AM)30.27 "Hg (Jul 22, 7:53 AM)
Low58 °F (Jul 11, 2:53 AM)30% (Jul 20, 4:53 PM)29.88 "Hg (Jul 17, 6:53 PM)
Average67 °F62%30.09 "Hg
* Reported Jul 10 4:53 PM — Jul 25 4:53 PM, Redmond, Weather by CustomWeather, © 2016

Note: Actual official high and low records may vary slightly from our data, if they occured in-between our weather recording intervals... More about our weather records

Advertising

Redmond Weather History for the Previous 24 Hours

Scroll right to see more
 ConditionsComfort  
Time TempWeatherWind HumidityBarometerVisibility
4:53 PM
Mon, Jul 25
84 °FPassing clouds.8 mph38%30.01 "Hg10 mi
3:53 PM84 °FSunny.7 mph40%30.03 "Hg10 mi
2:53 PM82 °FSunny.7 mph41%30.04 "Hg10 mi
1:53 PM81 °FPassing clouds.7 mph42%30.05 "Hg10 mi
12:53 PM80 °FSunny.10 mph44%30.05 "Hg10 mi
11:53 AM78 °FScattered clouds.6 mph45%30.06 "Hg10 mi
10:53 AM76 °FScattered clouds.5 mph50%30.07 "Hg10 mi
9:53 AM73 °FPassing clouds.No wind53%30.07 "Hg10 mi
8:53 AM69 °FScattered clouds.No wind61%30.07 "Hg10 mi
7:53 AM66 °FScattered clouds.No wind70%30.07 "Hg10 mi
6:53 AM64 °FPassing clouds.No wind75%30.06 "Hg10 mi
5:53 AM62 °FPassing clouds.No wind75%30.05 "Hg10 mi
4:53 AM62 °FClear.3 mph75%30.05 "Hg10 mi
3:53 AM63 °FClear.3 mph73%30.03 "Hg10 mi
2:53 AM64 °FClear.No wind70%30.03 "Hg10 mi
1:53 AM65 °FClear.No wind66%30.02 "Hg10 mi
12:53 AM66 °FClear.No wind63%30.02 "Hg10 mi
11:53 PM
Sun, Jul 24
68 °FClear.No wind59%30.02 "Hg10 mi
10:53 PM69 °FClear.No wind57%30.02 "Hg10 mi
9:53 PM69 °FClear.3 mph57%30.02 "Hg10 mi
8:53 PM72 °FSunny.6 mph49%30.00 "Hg10 mi
7:53 PM75 °FSunny.6 mph45%30.00 "Hg10 mi
6:53 PM78 °FSunny.8 mph40%30.00 "Hg10 mi
5:53 PM79 °FSunny.7 mph39%30.01 "Hg10 mi
Weather by CustomWeather, © 2016

See weather overviewHow to use our weather pages